Location: La Pernelle
(49.6188°N, 1.2999°W)
Time: 04:18:52
(UTC+00:00)

NOSS 3-2 (A) - Pass Details

Date: 22 October 2021
Orbit: 771 x 1437 km, 63.4° (Epoch: 21 November)

Event Time Altitude Azimuth Distance (km) Brightness Sun altitude
Rises 23:16:09 0° 313° (NW) 4,025 7.2 -51.2°
Reaches altitude 10° 23:19:07 10° 302° (WNW) 3,159 6.4 -51.3°
Enters shadow 23:19:15 11° 302° (WNW) 3,121 6.4 -51.3°
